This demonstration page uses our WeatherBlox Daily Observations layout. Learn more.

Left ArrowRight Arrow

Hourly Observations for January 7, 2020

Temp ( °F °C ) Dew Point ( °F °C ) Humidity (%) Winds ( mph kmh ) Pressure ( in mb ) Visibility ( mi km ) Precip ( " mm )
12:53 am 00:53 Cloudy 31 -0.6 26 -3.3 82 82 SSW 8 13 30.05 1018 10 16 0.00 0.00
1:53 am 01:53 Cloudy with Light Snow 28 -2.2 22 -5.6 78 78 E 9 15 30.06 1018 4 6 0.00 0.00
2:53 am 02:53 Cloudy 27 -2.8 19 -7.2 72 72 E 7 11 30.08 1019 10 16 0.00 0.00
3:53 am 03:53 Cloudy 26 -3.3 19 -7.2 75 75 ENE 8 13 30.09 1019 10 16 0.00 0.00
4:53 am 04:53 Cloudy 26 -3.3 20 -6.7 78 78 E 7 11 30.09 1019 10 16 0.00 0.00
5:24 am 05:24 Cloudy 25 -3.9 19 -7.2 78 78 ENE 12 19 30.14 1021 10 16 0.00 0.00
5:53 am 05:53 Cloudy 25 -3.9 19 -7.2 78 78 ENE 9 15 30.09 1019 10 16 0.00 0.00
6:42 am 06:42 Cloudy 24 -4.4 18 -7.8 77 77 ENE 8 13 30.17 1022 10 16 0.00 0.00
6:53 am 06:53 Cloudy 24 -4.4 18 -7.8 77 77 ENE 10 17 30.10 1019 10 16 0.00 0.00
7:53 am 07:53 Cloudy 24 -4.4 19 -7.2 81 81 ENE 12 19 30.11 1020 10 16 0.00 0.00
8:53 am 08:53 Cloudy 24 -4.4 19 -7.2 81 81 ENE 10 17 30.13 1020 10 16 0.00 0.00
9:53 am 09:53 Cloudy with Light Snow 24 -4.4 20 -6.7 84 84 ENE 13 20 30.13 1020 3 5 0.00 0.00
10:09 am 10:09 Cloudy with Light Snow 25 -3.9 20 -6.7 81 81 ENE 13 20 30.18 1022 3 4 0.00 0.00
10:19 am 10:19 Cloudy with Light Snow 25 -3.9 20 -6.7 81 81 ENE 14 22 30.18 1022 2 2 0.01 0.25
10:38 am 10:38 Cloudy with Light Snow 25 -3.9 21 -6.1 85 85 ENE 13 20 30.18 1022 2 3 0.01 0.25
10:53 am 10:53 Cloudy with Light Snow 25 -3.9 21 -6.1 85 85 ENE 14 22 30.12 1020 2 3 0.01 0.25
11:00 am 11:00 Cloudy with Light Snow 25 -4 21 -6 86 86 ENE 14 22 30.17 1022 2 3 0.00 0.00
11:13 am 11:13 Cloudy with Light Snow 26 -3.3 22 -5.6 84 84 ENE 13 20 30.16 1021 1 2 0.00 0.00
11:53 am 11:53 Cloudy with Light Snow 27 -2.8 24 -4.4 89 89 ENE 15 24 30.09 1019 1 2 0.01 0.25
12:15 pm 12:15 Mostly Cloudy with Light Snow 29 -1.7 26 -3.3 89 89 E 21 33 30.11 1020 1 1 0.00 0.00
12:32 pm 12:32 Cloudy with Light Snow 29 -1.7 26 -3.3 89 89 E 18 30 30.11 1020 1 2 0.00 0.00
12:53 pm 12:53 Windy with Snow Likely 29 -1.7 26 -3.3 89 89 E 21 33 30.06 1018 1 2 0.02 0.51
1:12 pm 13:12 Cloudy with Light Snow 29 -1.7 26 -3.3 89 89 E 17 28 30.09 1019 2 2 0.00 0.00
1:23 pm 13:23 Cloudy with Light Snow 29 -1.7 26 -3.3 89 89 E 18 30 30.09 1019 1 2 0.00 0.00
1:53 pm 13:53 Cloudy with Light Snow 29 -1.7 26 -3.3 89 89 E 18 30 30.04 1017 2 3 0.01 0.25
1:56 pm 13:56 Windy with Snow Likely 29 -1.7 26 -3.3 89 89 E 20 31 30.07 1018 3 5 0.00 0.00
2:53 pm 14:53 Cloudy 28 -2.2 23 -5 81 81 ENE 21 33 30.02 1017 10 16 0.00 0.00
3:53 pm 15:53 Cloudy 27 -2.8 23 -5 85 85 ENE 18 30 30.01 1016 10 16 0.00 0.00
4:53 pm 16:53 Cloudy 27 -2.8 23 -5 85 85 ENE 18 30 29.97 1015 10 16 0.00 0.00
5:53 pm 17:53 Partly Cloudy 27 -2.8 23 -5 85 85 ENE 16 26 29.93 1014 10 16 0.00 0.00
6:53 pm 18:53 Cloudy 28 -2.2 24 -4.4 85 85 ENE 15 24 29.91 1013 10 16 0.00 0.00
7:53 pm 19:53 Mostly Clear 27 -2.8 24 -4.4 89 89 Calm 29.87 1012 10 16 0.00 0.00
8:53 pm 20:53 Clear 26 -3.3 23 -5 88 88 ENE 7 11 29.85 1011 10 16 0.00 0.00
9:53 pm 21:53 Clear 25 -3.9 22 -5.6 88 88 E 3 6 29.81 1010 10 16 0.00 0.00
10:53 pm 22:53 Clear 24 -4.4 21 -6.1 88 88 Calm 29.79 1009 10 16 0.00 0.00
11:53 pm 23:53 Mostly Cloudy 25 -3.9 23 -5 92 92 ENE 5 7 29.75 1007 10 16 0.00 0.00

Powered by AerisWeather